TimeCST,TemperatureF,Dew PointF,Humidity,Sea Level PressureIn,VisibilityMPH,Wind Direction,Wind SpeedMPH,Gust SpeedMPH,PrecipitationIn,Events,Conditions,WindDirDegrees,DateUTC
12:53 AM,33.1,32.0,96,29.58,10.0,WNW,16.1,28.8,N/A,,Overcast,290,2012-11-11 06:53:00
1:15 AM,32.0,32.0,100,29.57,8.0,WNW,18.4,26.5,N/A,,Overcast,290,2012-11-11 07:15:00
1:53 AM,32.0,32.0,100,29.61,10.0,WNW,20.7,27.6,N/A,,Overcast,290,2012-11-11 07:53:00
2:53 AM,30.0,30.0,100,29.64,10.0,WNW,18.4,24.2,N/A,,Overcast,290,2012-11-11 08:53:00
3:01 AM,30.2,30.2,100,29.60,10.0,WNW,18.4,-,N/A,,Overcast,290,2012-11-11 09:01:00
3:29 AM,28.4,28.4,100,29.64,10.0,West,18.4,24.2,N/A,,Overcast,280,2012-11-11 09:29:00
3:53 AM,28.0,27.0,96,29.68,10.0,West,20.7,31.1,N/A,,Overcast,280,2012-11-11 09:53:00
4:53 AM,27.0,25.0,92,29.73,10.0,West,17.3,28.8,N/A,,Overcast,280,2012-11-11 10:53:00
5:53 AM,26.1,24.1,92,29.74,10.0,WNW,20.7,29.9,N/A,,Overcast,290,2012-11-11 11:53:00
6:00 AM,24.8,23.0,93,29.70,10.0,WNW,23.0,29.9,N/A,,Overcast,290,2012-11-11 12:00:00
6:53 AM,24.1,21.9,91,29.76,10.0,WNW,19.6,27.6,N/A,,Overcast,300,2012-11-11 12:53:00
7:53 AM,23.0,21.0,92,29.78,10.0,WNW,19.6,25.3,N/A,,Overcast,300,2012-11-11 13:53:00
8:53 AM,23.0,19.9,88,29.81,10.0,West,19.6,24.2,N/A,,Overcast,280,2012-11-11 14:53:00
10:53 AM,21.9,18.0,85,29.85,6.0,West,18.4,-,N/A,,Overcast,270,2012-11-11 16:53:00
11:53 AM,21.0,17.1,85,29.85,10.0,West,17.3,-,N/A,,Overcast,280,2012-11-11 17:53:00
12:53 PM,21.0,17.1,85,29.85,9.0,West,18.4,25.3,N/A,,Overcast,270,2012-11-11 18:53:00
1:53 PM,21.0,17.1,85,29.86,8.0,West,18.4,23.0,0.00,,Overcast,280,2012-11-11 19:53:00
2:32 PM,21.2,17.6,86,29.78,10.0,West,18.4,23.0,N/A,,Overcast,280,2012-11-11 20:32:00
2:53 PM,21.0,16.0,81,29.86,10.0,West,20.7,26.5,N/A,,Overcast,270,2012-11-11 20:53:00
3:53 PM,19.9,15.1,81,29.87,8.0,WNW,18.4,27.6,0.00,Snow,Light Snow,290,2012-11-11 21:53:00
4:53 PM,19.9,15.1,81,29.88,7.0,West,18.4,-,0.00,Snow,Light Snow,280,2012-11-11 22:53:00
5:53 PM,19.9,15.1,81,29.91,8.0,WNW,18.4,-,0.00,Snow,Light Snow,290,2012-11-11 23:53:00
6:53 PM,19.0,12.9,77,29.92,7.0,West,16.1,26.5,0.00,Snow,Light Snow,270,2012-11-12 00:53:00
7:53 PM,18.0,12.9,81,29.93,4.0,West,19.6,26.5,0.00,Snow,Light Snow,270,2012-11-12 01:53:00
8:53 PM,18.0,12.9,81,29.93,8.0,West,18.4,25.3,0.00,Snow,Light Snow,270,2012-11-12 02:53:00
9:04 PM,17.6,12.2,79,29.86,9.0,West,20.7,27.6,0.00,,Overcast,270,2012-11-12 03:04:00
9:53 PM,17.1,12.0,81,29.94,9.0,West,18.4,25.3,0.00,,Overcast,270,2012-11-12 03:53:00
10:53 PM,18.0,12.9,81,29.93,10.0,West,19.6,27.6,0.00,,Overcast,260,2012-11-12 04:53:00
11:00 PM,17.6,12.2,79,29.86,8.0,West,18.4,-,0.00,Snow,Light Snow,260,2012-11-12 05:00:00